Regional Weather Roundup
Issued by NWS Lake Charles, LA

Home | Current Version | Previous Version | Text Only | Print | Product List | Glossary On
Versions: 1 2 3 4 5 6 7 8 9 10 11 12 13 14 15 16 17 18 19 20 21 22 23 24 25 26 27 28 29 30 31 32 33 34 35 36 37 38 39 40 41 42 43 44 45 46 47 48 49 50
000
ASUS44 KLCH 171310
RWRLCH
REGIONAL WEATHER ROUNDUP
NATIONAL WEATHER SERVICE LAKE CHARLES LA
700 AM CST TUE JAN 17 2017

Note: "fair" indicates few or no clouds below 12,000 feet with no
significant weather and/or obstructions to visibility.


ACROSS SOUTHEAST TEXAS

CITY           SKY/WX    TMP DP  RH WIND       PRES   REMARKS
BEAUMONT       CLOUDY    69  68  96 S7        30.05R
BEAUMONT CITY  CLOUDY    71  69  94 S9        30.06R
ORANGE         CLOUDY   N/A N/A N/A S6        30.07R HAZE
JASPER         CLOUDY    58  57  94 N7        30.10R
$$

ACROSS CENTRAL LOUISIANA

CITY           SKY/WX    TMP DP  RH WIND       PRES   REMARKS
LEESVILLE      LGT RAIN  57  57 100 N9        30.08R
FULLERTON      CLOUDY    69  67  93 MISG      30.05R
ALEXANDRIA INT CLOUDY    62  61  96 NW7       30.07R
ESLER FIELD    CLOUDY    69  67  93 S6        30.08R
DERIDDER       CLOUDY    70  69  95 CALM      30.07S
OAKDALE        CLOUDY    70  67  92 SE5       30.08S
OPELOUSAS      FAIR      66  64  96 SE6       30.11R
$$

ACROSS SOUTHWEST AND SOUTH CENTRAL LOUISIANA

CITY           SKY/WX    TMP DP  RH WIND       PRES   REMARKS
SULPHUR        CLOUDY    69  69  99 S8        30.08R
LAKE CHARLES   CLOUDY    69  68  96 S9        30.07R
CHENNAULT INT  MOCLDY    68  68 100 S8        30.07S
CAMERON PHI    FOG       64  64 100 SE8       30.06S VSB 1/4
DEQUINCY       CLOUDY    70  68  95 SE10      30.06S
JENNINGS       NOT AVBL
LAFAYETTE      CLOUDY    71  69  93 S3        30.10R
NEW IBERIA     CLOUDY    70  67  90 S9        30.11R
ABBEVILLE      NOT AVBL
PATTERSON      FOG       68  68 100 S6        30.12R VSB 3/4
SALT POINT     NOT AVBL
$$

SELECTED SITES ACROSS THE REGION

CITY           SKY/WX    TMP DP  RH WIND       PRES   REMARKS
HOUSTON BUSH   CLOUDY    72  69  90 CALM      30.02R
HOUSTON HOBBY  CLOUDY    71  69  93 S7        30.02R
GALVESTON      FOG       68  68 100 SE8       30.04R VSB 1
COLLEGE STAT   CLOUDY    56  54  93 NE12      30.08R
CONROE         LGT RAIN  57  55  93 N7G17     30.07R
HUNTSVILLE     CLOUDY    56  54  93 NE6       30.09R
LUFKIN         CLOUDY    56  53  90 N6        30.11R
SHREVEPORT     CLOUDY    54  48  80 N6        30.12R
MONROE         LGT RAIN  57  55  93 N7        30.11F
NATCHEZ MS     CLOUDY    66  63  88 S12       30.10R
BATON ROUGE    CLOUDY    68  67  96 SE5       30.12R FOG
N.O. INTL ARPT CLOUDY    68  68 100 S6        30.13R FOG
SLIDELL        CLOUDY    68  67  96 S7        30.13R
$$

MARINE REPORTS

STATION/POSITION TIME  SKY/WX   TEMP    WIND        PRES    VSBY
                                AIR SEA DIR/SP/G
                 (UTC)          (F)     (DEG/KT/KT) (MB)    (MI)
BUOY 30 S HIGH I 1150            67 62  160/  6/  6 1016.7
WVE H/P(F/S)=  3/ 7

SEA RIM ST PARK  1200            65     160/  8/ 10 1017.4R
PORT ARTHUR      1242               63  150/  5/  6 1017.6R
SABINE PASS N    1242            68 64  160/  6/  9 1018.8R
TEXAS POINT      NOT AVBL
CALCASIEU PASS   1242            64 62  160/ 10/ 11   N/A
LK CHARLES BEACH 1248            70 59              1018.6R
MARSH ISLAND     1200            66                   N/A
FRESH WATER LOCK 1248            64 67  120/  6/  8 1019.4R
AMERADA PASS     1248            66 51  120/  3/  6 1019.3R
$$



USA.gov is the U.S. government's official web portal to all federal, state and local government web resources and services.